Regional Weather Roundup
Issued by NWS

Home | Current Version | Previous Version | Text Only | Print | Product List | Glossary On
Versions: 1 2 3 4 5 6 7 8 9 10 11 12 13 14 15 16 17 18 19 20 21 22 23 24 25 26 27 28 29 30 31 32 33 34 35 36 37 38 39 40 41 42 43 44 45 46 47 48 49 50
000
ASUS44 KJAN 041210
RWRMS

MISSISSIPPI HOURLY WEATHER ROUNDUP
NATIONAL WEATHER SERVICE JACKSON MS
700 AM CDT WED MAY 04 2016

NOTE: "FAIR: INDICATES FEW OR NO CLOUDS BELOW 12,000 FEET WITH NO
SIGNIFICANT WEATHER AND/OR OBSTRUCTIONS TO VISIBILITY.

MSZ001>002-007>008-010>013-018>021-025>028-034>036-041300-
NORTHWEST MISSISSIPPI

CITY           SKY/WX    TMP DP  RH WIND       PRES   REMARKS
BATESVILLE     FAIR      47  46  97 CALM      29.94S
CLEVELAND      FAIR      55  54  95 W3        29.95S
GREENWOOD      PTCLDY    51  49  92 CALM      29.95S
6HR MIN TEMP:  48; 6HR MAX TEMP:  52;

GREENVILLE     CLEAR     54  49  83 W6        29.96S
6HR MIN TEMP:  52; 6HR MAX TEMP:  55;

OLIVE BRANCH   SUNNY     48  48 100 SW7       29.91S
OXFORD         FAIR      46  45  93 CALM      29.94S
TUNICA         SUNNY     52  48  87 SW5       29.93S
WINONA         FAIR      48  48 100 CALM      29.94F
$$

MSZ003>006-009-014>017-022>024-029>033-037>039-041300-
NORTHEAST MISSISSIPPI

CITY           SKY/WX    TMP DP  RH WIND       PRES   REMARKS
COLUMBUS AFB   SUNNY     50  49  97 CALM      29.92S
6HR MIN TEMP:  47; 6HR MAX TEMP:  54;

CORINTH        FAIR      48  48 100 CALM      29.89S
GOLDN TRIANGLE SUNNY     52  46  82 NW5       29.92S
STARKVILLE     FAIR      46  46 100 CALM      29.93S
TUPELO         SUNNY     53  48  83 SW3       29.91S
6HR MIN TEMP:  50; 6HR MAX TEMP:  54;

$$

MSZ040-058-041300-
CENTRAL MISSISSIPPI

CITY           SKY/WX    TMP DP  RH WIND       PRES   REMARKS
JACKSON INTL   PTCLDY    51  49  92 CALM      29.96R
6HR MIN TEMP:  49; 6HR MAX TEMP:  55;

JACKSON HAWKNS CLEAR     52  48  86 NW3       29.97R
6HR MIN TEMP:  51; 6HR MAX TEMP:  55;

MADISON        FAIR      48  46  93 CALM      29.96S
MERIDIAN KEY   SUNNY     51  49  92 CALM      29.94S
6HR MIN TEMP:  50; 6HR MAX TEMP:  55;

MERIDIAN NAS   SUNNY     52  48  86 NW6       29.94S
6HR MIN TEMP:  50; 6HR MAX TEMP:  56;

VICKSBURG TVR  CLEAR     54  52  93 VRB7      29.99R
6HR MIN TEMP:  53; 6HR MAX TEMP:  58;

VICKSBURG VKS  SUNNY     50  50 100 CALM      29.99R
$$

MSZ059>079-041300-
SOUTH MISSISSIPPI

CITY           SKY/WX    TMP DP  RH WIND       PRES   REMARKS
BROOKHAVEN     FAIR     N/A N/A N/A NW3       29.98R
COLUMBIA       FAIR      48  48 100 CALM      30.01R
HATTIESBURG    CLEAR     53  50  89 NW3       29.97R
6HR MIN TEMP:  52; 6HR MAX TEMP:  61;

MCCOMB         PTCLDY    52  50  93 CALM      29.98R
6HR MIN TEMP:  51; 6HR MAX TEMP:  59;

NATCHEZ        PTCLDY    52  46  82 CALM      29.99S
6HR MIN TEMP:  50; 6HR MAX TEMP:  55;

PINE BELT      CLEAR     54  46  76 NW6       29.96S
6HR MIN TEMP:  52; 6HR MAX TEMP:  57;

$$

MSZ080>082-041300-
COASTAL MISSISSIPPI

CITY           SKY/WX    TMP DP  RH WIND       PRES   REMARKS
BAY ST LOUIS   CLEAR     55  46  71 N9        29.94
BILOXI         PTCLDY    59  53  79 N12       29.91S
6HR MIN TEMP:  58; 6HR MAX TEMP:  65;

PASCAGOULA     SUNNY     58  52  80 N8        29.91S
6HR MIN TEMP:  57; 6HR MAX TEMP:  64;

GULFPORT       PTCLDY    58  50  75 N12       29.92S
6HR MIN TEMP:  58; 6HR MAX TEMP:  64;

$$



USA.gov is the U.S. government's official web portal to all federal, state and local government web resources and services.